User: anonymous   Login
Location: Conflandey
(47.7287°N, 6.0456°E)
Time: 19:13:25
(UTC+00:00)
Language:

Cosmos 2228 - Orbit

View from above orbital plane
View from above orbital plane
View from above satellite
View from above satellite

Ground track
Ground track

The orbit data is extracted from the following two-line orbital elements,

1 22286U 92094A   22022.50799132  .00000509  00000-0  52076-4 0  9996
2 22286  82.5182 228.6150 0019834 303.3758  56.5561 14.88430622551317
Epoch (UTC): 22 January 2022 12:11:30
Eccentricity: 0.0019834
inclination: 82.5182°
perigee height: 589 km
apogee height: 616 km
right ascension of ascending node: 228.6150°
argument of perigee: 303.3758°
revolutions per day: 14.88430622
mean anomaly at epoch: 56.5561°
orbit number at epoch: 55131

The dashed part of the orbit path shows where the satellite is in the earth's shadow,  

DLR